EW5655 Weather Reports


Display with metric or nautical units.
time (UTC)temp
F
wind
direction
speed
MPH
gust
MPH
rain 1hr
in
rain 24hr
in
rain mn
in
humidity
%
barometer
mb
20260831042046 84 120 0.0 1.0 0.00 0.00 0.00 28 1016.2
20260831041550 84 120 0.0 0.0 0.00 0.00 0.00 29 1016.2
20260831041046 84 120 0.0 1.0 0.00 0.00 0.00 28 1016.1
20260831040545 85 120 0.0 1.0 0.00 0.00 0.00 28 1016.2
20260831040045 85 120 0.0 2.0 0.00 0.00 0.00 28 1016.1
20260831035545 85 120 0.0 1.0 0.00 0.00 0.00 28 1016.1
20260831035044 85 120 0.0 1.0 0.00 0.00 0.00 28 1016.0
20260831034549 85 120 0.0 1.0 0.00 0.00 0.00 29 1016.0
20260831034045 86 120 0.0 1.0 0.00 0.00 0.00 28 1015.9
20260831033544 85 120 0.0 1.0 0.00 0.00 0.00 29 1015.8
20260831033048 86 120 0.0 1.0 0.00 0.00 0.00 29 1015.8
20260831032541 86 120 0.0 0.0 0.00 0.00 0.00 29 1015.7
20260831032041 86 120 0.0 1.0 0.00 0.00 0.00 28 1015.7
20260831031542 87 120 0.0 2.0 0.00 0.00 0.00 27 1015.6
20260831031044 87 120 0.0 4.0 0.00 0.00 0.00 27 1015.5
20260831030541 87 135 0.0 3.0 0.00 0.00 0.00 28 1015.5
20260831030048 87 157 0.0 1.0 0.00 0.00 0.00 28 1015.4
20260831025540 88 157 0.0 0.0 0.00 0.00 0.00 28 1015.3
20260831025043 88 157 0.0 4.0 0.00 0.00 0.00 28 1015.3
20260831024549 89 157 0.0 4.0 0.00 0.00 0.00 27 1015.2
20260831024040 89 157 0.0 1.0 0.00 0.00 0.00 28 1015.1
20260831023540 90 157 0.0 2.0 0.00 0.00 0.00 26 1015.1
20260831023039 90 157 0.0 2.0 0.00 0.00 0.00 25 1015.1
20260831022539 91 157 0.0 4.0 0.00 0.00 0.00 24 1015.0
20260831022039 92 157 1.0 5.0 0.00 0.00 0.00 23 1015.0
20260831021539 92 167 1.0 5.0 0.00 0.00 0.00 23 1015.0
20260831021039 92 160 2.0 6.0 0.00 0.00 0.00 23 1014.9
20260831020541 92 165 1.0 8.0 0.00 0.00 0.00 23 1014.9
20260831020039 92 171 4.0 8.0 0.00 0.00 0.00 22 1014.9
20260831015538 92 144 3.0 6.0 0.00 0.00 0.00 23 1014.9
20260831015038 92 171 1.0 5.0 0.00 0.00 0.00 22 1014.8
20260831014541 93 190 1.0 7.0 0.00 0.00 0.00 22 1014.8
20260831014040 93 179 4.0 7.0 0.00 0.00 0.00 22 1014.7
20260831013538 93 185 2.0 7.0 0.00 0.00 0.00 22 1014.8
20260831013040 93 179 2.0 5.0 0.00 0.00 0.00 22 1014.7
20260831012540 93 198 2.0 5.0 0.00 0.00 0.00 22 1014.7
20260831012040 94 180 3.0 7.0 0.00 0.00 0.00 21 1014.7
20260831011539 94 194 2.0 7.0 0.00 0.00 0.00 21 1014.6
20260831011037 94 214 2.0 7.0 0.00 0.00 0.00 21 1014.7
20260831010536 94 206 3.0 7.0 0.00 0.00 0.00 21 1014.6
20260831010039 94 186 4.0 7.0 0.00 0.00 0.00 21 1014.6
20260831005537 95 211 1.0 7.0 0.00 0.00 0.00 20 1014.7
20260831005037 95 219 2.0 7.0 0.00 0.00 0.00 21 1014.7
20260831004540 96 230 4.0 9.0 0.00 0.00 0.00 20 1014.8
20260831004037 96 225 4.0 9.0 0.00 0.00 0.00 20 1014.7
20260831003537 96 205 4.0 9.0 0.00 0.00 0.00 20 1014.8
20260831003035 96 202 4.0 7.0 0.00 0.00 0.00 20 1014.8
20260831002535 97 207 4.0 8.0 0.00 0.00 0.00 19 1014.7
20260831002038 97 204 4.0 9.0 0.00 0.00 0.00 19 1014.7
20260831001535 97 260 4.0 9.0 0.00 0.00 0.00 19 1014.6
20260831001035 97 165 2.0 8.0 0.00 0.00 0.00 19 1014.6
20260831000535 98 240 3.0 9.0 0.00 0.00 0.00 19 1014.6
20260831000035 97 134 3.0 9.0 0.00 0.00 0.00 18 1014.7
20260830235535 98 127 4.0 9.0 0.00 0.00 0.00 18 1014.7
20260830235038 98 94 4.0 9.0 0.00 0.00 0.00 18 1014.6
20260830234534 98 155 3.0 7.0 0.00 0.00 0.00 18 1014.7
20260830234035 99 101 2.0 6.0 0.00 0.00 0.00 18 1014.7
20260830233534 98 126 3.0 7.0 0.00 0.00 0.00 19 1014.7
20260830233032 98 184 3.0 9.0 0.00 0.00 0.00 18 1014.8
20260830232533 99 112 4.0 9.0 0.00 0.00 0.00 18 1014.8
20260830232033 98 128 5.0 9.0 0.00 0.00 0.00 18 1014.8
20260830231532 98 214 2.0 8.0 0.00 0.00 0.00 19 1014.8
20260830231031 99 170 1.0 9.0 0.00 0.00 0.00 19 1014.9
20260830230530 98 160 4.0 9.0 0.00 0.00 0.00 19 1014.9
20260830230031 99 195 2.0 7.0 0.00 0.00 0.00 20 1015.0
20260830225531 98 156 2.0 7.0 0.00 0.00 0.00 19 1015.0
20260830225030 98 219 3.0 7.0 0.00 0.00 0.00 19 1015.1
20260830224529 99 171 4.0 8.0 0.00 0.00 0.00 19 1015.1
20260830224030 98 182 3.0 11.0 0.00 0.00 0.00 20 1015.1
20260830223529 99 171 6.0 11.0 0.00 0.00 0.00 19 1015.1
20260830223032 99 160 6.0 11.0 0.00 0.00 0.00 19 1015.2
20260830222526 99 114 5.0 14.0 0.00 0.00 0.00 18 1015.3
20260830222026 100 182 5.0 12.0 0.00 0.00 0.00 18 1015.3
20260830221531 99 139 7.0 12.0 0.00 0.00 0.00 18 1015.3
20260830221026 99 163 5.0 15.0 0.00 0.00 0.00 18 1015.4
20260830220526 100 153 8.0 15.0 0.00 0.00 0.00 17 1015.5
20260830220031 99 236 5.0 9.0 0.00 0.00 0.00 19 1015.5
20260830215524 99 180 1.0 11.0 0.00 0.00 0.00 18 1015.6
20260830215027 99 257 6.0 11.0 0.00 0.00 0.00 19 1015.7
20260830214523 100 206 4.0 14.0 0.00 0.00 0.00 19 1015.8
20260830214029 99 250 9.0 14.0 0.00 0.00 0.00 19 1015.8
20260830213521 100 327 4.0 9.0 0.00 0.00 0.00 19 1015.9
20260830213021 99 292 5.0 9.0 0.00 0.00 0.00 20 1015.9
20260830212521 99 252 3.0 7.0 0.00 0.00 0.00 20 1016.0
20260830212020 99 247 3.0 5.0 0.00 0.00 0.00 19 1016.1
20260830211519 99 331 0.0 5.0 0.00 0.00 0.00 19 1016.1
20260830211019 99 276 0.0 3.0 0.00 0.00 0.00 19 1016.2
20260830210517 99 261 1.0 8.0 0.00 0.00 0.00 18 1016.3
20260830210016 97 153 4.0 8.0 0.00 0.00 0.00 19 1016.4
20260830205515 98 169 5.0 8.0 0.00 0.00 0.00 20 1016.6
20260830205014 98 194 4.0 7.0 0.00 0.00 0.00 20 1016.6
20260830204514 97 158 2.0 6.0 0.00 0.00 0.00 21 1016.7
20260830204014 98 163 3.0 8.0 0.00 0.00 0.00 20 1016.8
20260830203512 99 146 3.0 8.0 0.00 0.00 0.00 20 1016.9
20260830203012 98 133 1.0 8.0 0.00 0.00 0.00 21 1017.0
20260830202511 98 172 3.0 8.0 0.00 0.00 0.00 21 1017.1
20260830202011 97 244 2.0 6.0 0.00 0.00 0.00 22 1017.2
20260830201509 98 221 2.0 9.0 0.00 0.00 0.00 21 1017.3
20260830201008 98 267 5.0 8.0 0.00 0.00 0.00 22 1017.3
20260830200508 97 245 3.0 7.0 0.00 0.00 0.00 22 1017.4
20260830200007 98 342 0.0 5.0 0.00 0.00 0.00 22 1017.4
20260830195508 97 29 1.0 5.0 0.00 0.00 0.00 21 1017.5
20260830195006 98 44 1.0 5.0 0.00 0.00 0.00 21 1017.6
20260830194507 97 45 1.0 6.0 0.00 0.00 0.00 22 1017.7
20260830194007 96 7 0.0 7.0 0.00 0.00 0.00 22 1017.8
20260830193505 97 357 5.0 7.0 0.00 0.00 0.00 20 1017.8
20260830193005 96 22 0.0 8.0 0.00 0.00 0.00 23 1017.8
20260830192503 95 322 1.0 9.0 0.00 0.00 0.00 22 1017.9
20260830192004 96 309 2.0 9.0 0.00 0.00 0.00 22 1018.1
20260830191504 95 338 2.0 6.0 0.00 0.00 0.00 22 1018.0
20260830191004 94 186 2.0 8.0 0.00 0.00 0.00 23 1018.1
20260830190504 95 271 3.0 8.0 0.00 0.00 0.00 23 1018.2
20260830190004 96 50 1.0 8.0 0.00 0.00 0.00 23 1018.2
20260830185502 95 126 1.0 8.0 0.00 0.00 0.00 23 1018.3
20260830185002 94 157 1.0 6.0 0.00 0.00 0.00 23 1018.4
20260830184600 94 213 1.0 6.0 0.00 0.00 0.00 24 1018.5
20260830184059 94 203 2.0 5.0 0.00 0.00 0.00 24 1018.6
20260830183600 93 134 0.0 5.0 0.00 0.00 0.00 24 1018.7
20260830183057 92 125 0.0 4.0 0.00 0.00 0.00 27 1018.7
20260830182600 93 221 0.0 4.0 0.00 0.00 0.00 24 1018.8
20260830182058 93 218 0.0 5.0 0.00 0.00 0.00 25 1018.9
20260830181558 93 294 0.0 8.0 0.00 0.00 0.00 25 1018.9
20260830181059 93 248 4.0 8.0 0.00 0.00 0.00 25 1019.0
20260830180554 92 248 2.0 6.0 0.00 0.00 0.00 27 1019.1
20260830180053 92 276 3.0 7.0 0.00 0.00 0.00 26 1019.0
20260830175552 92 167 4.0 7.0 0.00 0.00 0.00 26 1019.1
20260830175051 92 163 4.0 7.0 0.00 0.00 0.00 27 1019.1
20260830174552 91 290 1.0 7.0 0.00 0.00 0.00 26 1019.2
20260830174049 91 266 4.0 8.0 0.00 0.00 0.00 27 1019.2
20260830173549 91 276 4.0 8.0 0.00 0.00 0.00 27 1019.3
20260830173051 91 269 3.0 7.0 0.00 0.00 0.00 27 1019.4
20260830172546 90 182 4.0 7.0 0.00 0.00 0.00 27 1019.4
20260830172045 90 206 1.0 6.0 0.00 0.00 0.00 28 1019.4
20260830171545 89 180 0.0 5.0 0.00 0.00 0.00 28 1019.4
20260830171043 89 207 0.0 5.0 0.00 0.00 0.00 29 1019.4
20260830170542 89 239 2.0 5.0 0.00 0.00 0.00 29 1019.4
20260830170041 89 13 0.0 5.0 0.00 0.00 0.00 29 1019.4
20260830165540 88 17 1.0 5.0 0.00 0.00 0.00 30 1019.4
20260830165042 89 313 2.0 6.0 0.00 0.00 0.00 29 1019.5
20260830164545 88 169 1.0 6.0 0.00 0.00 0.00 29 1019.5
20260830164037 88 190 1.0 6.0 0.00 0.00 0.00 30 1019.5
20260830163537 88 307 3.0 7.0 0.00 0.00 0.00 30 1019.5
20260830163047 87 165 1.0 7.0 0.00 0.00 0.00 30 1019.4
20260830162535 87 213 2.0 7.0 0.00 0.00 0.00 31 1019.5
20260830162034 87 254 4.0 6.0 0.00 0.00 0.00 32 1019.4
20260830161533 87 240 2.0 5.0 0.00 0.00 0.00 31 1019.4
20260830161034 87 129 0.0 4.0 0.00 0.00 0.00 30 1019.4
20260830160531 88 111 1.0 4.0 0.00 0.00 0.00 31 1019.4
20260830160050 87 129 1.0 4.0 0.00 0.00 0.00 31 1019.4
20260830155529 86 26 1.0 4.0 0.00 0.00 0.00 32 1019.4
20260830155029 85 30 0.0 6.0 0.00 0.00 0.00 32 1019.4
20260830154528 85 30 2.0 7.0 0.00 0.00 0.00 34 1019.4
20260830154032 85 345 2.0 7.0 0.00 0.00 0.00 34 1019.4
20260830153529 84 357 2.0 6.0 0.00 0.00 0.00 36 1019.5
20260830153027 84 77 2.0 6.0 0.00 0.00 0.00 37 1019.5
20260830152530 83 85 1.0 6.0 0.00 0.00 0.00 37 1019.5
20260830152025 83 13 2.0 7.0 0.00 0.00 0.00 38 1019.5
20260830151524 83 34 4.0 8.0 0.00 0.00 0.00 38 1019.5
20260830151024 82 30 2.0 8.0 0.00 0.00 0.00 40 1019.4
20260830150523 82 38 1.0 7.0 0.00 0.00 0.00 40 1019.5
20260830150023 81 25 1.0 8.0 0.00 0.00 0.00 41 1019.6
20260830145524 81 20 3.0 8.0 0.00 0.00 0.00 41 1019.5
20260830145021 80 26 3.0 7.0 0.00 0.00 0.00 41 1019.6
20260830144521 80 29 3.0 7.0 0.00 0.00 0.00 41 1019.6
20260830144020 80 23 1.0 6.0 0.00 0.00 0.00 42 1019.7
20260830143519 79 47 2.0 6.0 0.00 0.00 0.00 42 1019.6
20260830143018 78 29 0.0 5.0 0.00 0.00 0.00 43 1019.6
20260830142520 78 30 2.0 5.0 0.00 0.00 0.00 44 1019.6
20260830142018 77 13 2.0 6.0 0.00 0.00 0.00 44 1019.5
20260830141515 77 352 3.0 6.0 0.00 0.00 0.00 44 1019.5
20260830141013 77 7 0.0 5.0 0.00 0.00 0.00 45 1019.5
20260830140513 76 51 1.0 5.0 0.00 0.00 0.00 44 1019.5
20260830140011 76 22 0.0 5.0 0.00 0.00 0.00 45 1019.4
20260830135510 76 18 0.0 4.0 0.00 0.00 0.00 44 1019.4
20260830135010 75 44 0.0 4.0 0.00 0.00 0.00 44 1019.3
20260830134510 75 22 0.0 4.0 0.00 0.00 0.00 43 1019.2
20260830134010 75 13 0.0 4.0 0.00 0.00 0.00 42 1019.3
20260830133510 75 11 0.0 2.0 0.00 0.00 0.00 41 1019.3
20260830133008 75 355 0.0 2.0 0.00 0.00 0.00 42 1019.3
20260830132509 75 355 0.0 4.0 0.00 0.00 0.00 42 1019.3
20260830132007 75 348 1.0 3.0 0.00 0.00 0.00 42 1019.1
20260830131507 75 347 1.0 7.0 0.00 0.00 0.00 42 1019.0
20260830131004 75 340 3.0 7.0 0.00 0.00 0.00 42 1019.0
20260830130504 75 324 3.0 7.0 0.00 0.00 0.00 41 1018.9
20260830130002 76 357 4.0 7.0 0.00 0.00 0.00 41 1018.8
20260830125500 76 321 4.0 7.0 0.00 0.00 0.00 40 1018.8
20260830125100 76 320 4.0 7.0 0.00 0.00 0.00 40 1018.7
20260830124559 76 318 4.0 7.0 0.00 0.00 0.00 39 1018.6
20260830124058 76 342 1.0 5.0 0.00 0.00 0.00 37 1018.6
20260830123600 75 313 1.0 4.0 0.00 0.00 0.00 38 1018.5
20260830123057 75 313 0.0 4.0 0.00 0.00 0.00 38 1018.5
20260830122555 76 313 0.0 4.0 0.00 0.00 0.00 38 1018.4
20260830122055 76 293 0.0 4.0 0.00 0.00 0.00 39 1018.3
20260830121602 76 286 0.0 4.0 0.00 0.00 0.00 37 1018.4
20260830121053 76 41 0.0 0.0 0.00 0.00 0.00 37 1018.3
20260830120552 76 41 0.0 1.0 0.00 0.00 0.00 36 1018.4
20260830120052 77 41 0.0 1.0 0.00 0.00 0.00 35 1018.4
20260830115552 77 41 0.0 2.0 0.00 0.00 0.00 35 1018.4
20260830115051 77 41 0.0 4.0 0.00 0.00 0.00 35 1018.3
20260830114649 77 49 0.0 4.0 0.00 0.00 0.00 35 1018.3
20260830114052 77 63 0.0 4.0 0.00 0.00 0.00 35 1018.3
20260830113549 77 43 0.0 4.0 0.00 0.00 0.00 35 1018.2
20260830113048 77 63 1.0 4.0 0.00 0.00 0.00 35 1018.2
20260830112547 77 44 0.0 4.0 0.00 0.00 0.00 35 1018.3
20260830112047 77 49 0.0 4.0 0.00 0.00 0.00 35 1018.4
20260830111547 77 47 0.0 4.0 0.00 0.00 0.00 34 1018.3
20260830111047 77 44 0.0 4.0 0.00 0.00 0.00 35 1018.2
20260830110547 77 51 1.0 4.0 0.00 0.00 0.00 35 1018.3
20260830110047 77 40 0.0 4.0 0.00 0.00 0.00 35 1018.3
20260830105546 77 65 0.0 2.0 0.00 0.00 0.00 35 1018.3
20260830105046 77 56 0.0 5.0 0.00 0.00 0.00 35 1018.3
20260830104545 77 47 1.0 6.0 0.00 0.00 0.00 35 1018.3
20260830104045 77 58 3.0 6.0 0.00 0.00 0.00 35 1018.4
20260830103544 78 38 0.0 2.0 0.00 0.00 0.00 35 1018.3
20260830103048 78 43 0.0 2.0 0.00 0.00 0.00 35 1018.4
20260830102544 78 63 0.0 4.0 0.00 0.00 0.00 36 1018.4
20260830102045 78 59 0.0 5.0 0.00 0.00 0.00 36 1018.3
20260830101545 78 26 0.0 2.0 0.00 0.00 0.00 36 1018.4
20260830101043 79 352 0.0 1.0 0.00 0.00 0.00 35 1018.4
20260830100544 79 352 0.0 4.0 0.00 0.00 0.00 35 1018.3
20260830100042 79 350 0.0 5.0 0.00 0.00 0.00 35 1018.4
20260830095544 79 355 2.0 5.0 0.00 0.00 0.00 36 1018.4
20260830095044 79 350 1.0 5.0 0.00 0.00 0.00 35 1018.4
20260830094545 79 328 0.0 6.0 0.00 0.00 0.00 35 1018.4
20260830094041 79 334 3.0 8.0 0.00 0.00 0.00 36 1018.4
20260830093541 78 330 5.0 8.0 0.00 0.00 0.00 37 1018.3
20260830093039 78 317 4.0 7.0 0.00 0.00 0.00 37 1018.3
20260830092540 78 319 2.0 9.0 0.00 0.00 0.00 38 1018.2
20260830092037 78 298 5.0 12.0 0.00 0.00 0.00 37 1018.1
20260830091537 79 302 5.0 14.0 0.00 0.00 0.00 36 1018.0
20260830091038 82 300 4.0 9.0 0.00 0.00 0.00 32 1017.9
20260830090535 83 206 0.0 10.0 0.00 0.00 0.00 28 1017.7
20260830090045 84 160 2.0 10.0 0.00 0.00 0.00 27 1017.6
20260830085534 84 163 4.0 11.0 0.00 0.00 0.00 27 1017.5
20260830085034 84 156 5.0 11.0 0.00 0.00 0.00 27 1017.6
20260830084536 84 138 4.0 12.0 0.00 0.00 0.00 26 1017.6
20260830084034 84 138 5.0 12.0 0.00 0.00 0.00 26 1017.7
20260830083532 84 129 5.0 10.0 0.00 0.00 0.00 26 1017.7
20260830083033 84 135 5.0 10.0 0.00 0.00 0.00 26 1017.7
20260830082532 84 126 6.0 9.0 0.00 0.00 0.00 26 1017.7
20260830082031 84 124 5.0 10.0 0.00 0.00 0.00 26 1017.8
20260830081531 85 128 3.0 11.0 0.00 0.00 0.00 26 1017.7
20260830081031 85 128 6.0 11.0 0.00 0.00 0.00 26 1017.8
20260830080531 85 136 5.0 13.0 0.00 0.00 0.00 26 1017.8
20260830080030 86 137 7.0 13.0 0.00 0.00 0.00 25 1017.8
20260830075530 86 128 6.0 13.0 0.00 0.00 0.00 25 1017.8
20260830075030 86 152 5.0 13.0 0.00 0.00 0.00 25 1017.9
20260830074530 86 132 7.0 13.0 0.00 0.00 0.00 25 1017.9
20260830074029 86 156 6.0 13.0 0.00 0.00 0.00 25 1017.9
20260830073529 86 145 6.0 14.0 0.00 0.00 0.00 25 1017.9
20260830073030 86 126 7.0 14.0 0.00 0.00 0.00 25 1017.9
20260830072529 86 153 8.0 14.0 0.00 0.00 0.00 25 1018.0
20260830072032 86 156 6.0 15.0 0.00 0.00 0.00 25 1018.0
20260830071528 86 140 7.0 15.0 0.00 0.00 0.00 25 1018.1
20260830071028 86 153 6.0 12.0 0.00 0.00 0.00 25 1018.0
20260830070527 86 135 7.0 15.0 0.00 0.00 0.00 25 1018.0
20260830070027 86 165 6.0 15.0 0.00 0.00 0.00 25 1017.9
20260830065527 87 115 6.0 14.0 0.00 0.00 0.00 25 1017.9
20260830065026 87 132 7.0 14.0 0.00 0.00 0.00 25 1017.9
20260830064527 87 137 7.0 12.0 0.00 0.00 0.00 25 1017.8
20260830064026 87 130 6.0 11.0 0.00 0.00 0.00 25 1017.8
20260830063525 86 128 5.0 11.0 0.00 0.00 0.00 26 1017.8
20260830063023 86 169 5.0 11.0 0.00 0.00 0.00 28 1017.8
20260830062522 84 145 5.0 12.0 0.00 0.00 0.00 30 1017.9
20260830062020 83 147 3.0 8.0 0.00 0.00 0.00 33 1017.9
20260830061526 82 136 0.0 1.0 0.00 0.00 0.00 34 1017.7
20260830061018 83 136 0.0 1.0 0.00 0.00 0.00 33 1017.7
20260830060517 83 136 0.0 2.0 0.00 0.00 0.00 33 1017.7
20260830060016 84 136 0.0 5.0 0.00 0.00 0.00 32 1017.7
20260830055516 84 136 1.0 5.0 0.00 0.00 0.00 31 1017.7
20260830055018 84 92 0.0 1.0 0.00 0.00 0.00 33 1017.6
20260830054522 84 92 0.0 2.0 0.00 0.00 0.00 31 1017.7
20260830054015 85 92 0.0 4.0 0.00 0.00 0.00 31 1017.8
20260830053515 85 92 1.0 3.0 0.00 0.00 0.00 31 1017.9
20260830053014 85 99 1.0 4.0 0.00 0.00 0.00 30 1017.9
20260830052514 85 130 1.0 5.0 0.00 0.00 0.00 30 1017.9
20260830052014 86 130 1.0 5.0 0.00 0.00 0.00 30 1017.9
20260830051522 86 125 0.0 5.0 0.00 0.00 0.00 31 1018.0
20260830051017 86 125 0.0 5.0 0.00 0.00 0.00 29 1017.9
20260830050514 87 125 0.0 5.0 0.00 0.00 0.00 29 1017.9
20260830050014 87 125 1.0 5.0 0.00 0.00 0.00 29 1017.9
20260830045513 87 127 2.0 5.0 0.00 0.00 0.00 29 1018.0
20260830045013 87 126 1.0 5.0 0.00 0.00 0.00 29 1018.0
20260830044513 87 128 1.0 3.0 0.00 0.00 0.00 28 1017.9
20260830044015 87 115 1.0 6.0 0.00 0.00 0.00 29 1018.0
20260830043513 88 124 2.0 6.0 0.00 0.00 0.00 28 1018.1
20260830043012 88 132 2.0 7.0 0.00 0.00 0.00 28 1018.0
20260830042513 88 115 3.0 7.0 0.00 0.00 0.00 28 1017.9